WetterOnline ( https://www.wetteronline.ch )

Wetter aktuell Denkendorf

Aktuelles Wetter: Gelbelsee (539m)

6-stündlich | Neueste Meldungen
Ortszeit Temperatur Wetter
Fr, 24.01. 1:00 -3.5° C wolkenlos
Do, 23.01. 19:00 -2.0° C wolkenlos
Do, 23.01. 13:00 -2.0° C bedeckt
Do, 23.01. 7:00 -2.9° C Nebel
Do, 23.01. 1:00 -2.9° C Nebel
Mi, 22.01. 19:00 -4.1° C fast wolkenlos
Mi, 22.01. 13:00 -3.3° C bedeckt
Mi, 22.01. 7:00 -4.0° C Nebel
Ortszeit Temperatur Wetter
Fr, 24.01. 2:30 -3.3° C bedeckt
Fr, 24.01. 2:20 -3.3° C bedeckt
Fr, 24.01. 2:10 -3.0° C bedeckt
Fr, 24.01. 2:00 -3.6° C bedeckt
Fr, 24.01. 1:50 -3.6° C bedeckt
Fr, 24.01. 1:40 -3.8° C bedeckt
Fr, 24.01. 1:30 -3.6° C leicht bewölkt
Fr, 24.01. 1:00 -3.5° C wolkenlos
Fr, 24.01. 0:30 -3.6° C wolkenlos
Fr, 24.01. 0:00 -3.2° C wolkenlos
Do, 23.01. 23:30 -3.2° C wolkenlos
Do, 23.01. 23:00 -3.1° C wolkenlos
Ortszeit Relative Feuchte Sichtweite
Fr, 24.01. 1:00 99% 3.4 km
Do, 23.01. 19:00 99% 5.0 km
Do, 23.01. 13:00 99% 3.6 km
Do, 23.01. 7:00 100% 0.3 km
Do, 23.01. 1:00 100% 0.3 km
Mi, 22.01. 19:00 95% 3.9 km
Mi, 22.01. 13:00 96% 2.5 km
Mi, 22.01. 7:00 99% 0.3 km
Ortszeit Relative Feuchte Sichtweite
Fr, 24.01. 2:30 98% 4.4 km
Fr, 24.01. 2:20 98% -
Fr, 24.01. 2:10 99% -
Fr, 24.01. 2:00 99% 4.0 km
Fr, 24.01. 1:50 99% -
Fr, 24.01. 1:40 98% -
Fr, 24.01. 1:30 98% 4.6 km
Fr, 24.01. 1:00 99% 3.4 km
Fr, 24.01. 0:30 99% 3.9 km
Fr, 24.01. 0:00 100% 4.3 km
Do, 23.01. 23:30 100% 3.8 km
Do, 23.01. 23:00 100% 4.7 km
Ortszeit Niederschlagsmenge Niederschlagsart
Fr, 24.01. 1:00 0.0 l/m2 in 6 Std. -
Do, 23.01. 19:00 0.0 l/m2 in 12 Std. -
Do, 23.01. 13:00 0.0 l/m2 in 6 Std. -
Do, 23.01. 7:00 0.1 l/m2 in 12 Std. Sprühregen
Do, 23.01. 1:00 0.0 l/m2 in 6 Std. -
Mi, 22.01. 19:00 0.0 l/m2 in 12 Std. -
Mi, 22.01. 13:00 0.0 l/m2 in 6 Std. -
Mi, 22.01. 7:00 0.0 l/m2 in 12 Std. -
Ortszeit Niederschlagsmenge Niederschlagsart
Fr, 24.01. 2:30 0.0 l/m2 in 1 Std. -
Fr, 24.01. 2:20 keine Meldung -
Fr, 24.01. 2:10 keine Meldung -
Fr, 24.01. 2:00 0.0 l/m2 in 1 Std. -
Fr, 24.01. 1:50 keine Meldung -
Fr, 24.01. 1:40 keine Meldung -
Fr, 24.01. 1:30 0.0 l/m2 in 1 Std. -
Fr, 24.01. 1:00 0.0 l/m2 in 1 Std. -
Fr, 24.01. 0:30 0.0 l/m2 in 1 Std. -
Fr, 24.01. 0:00 0.0 l/m2 in 1 Std. -
Do, 23.01. 23:30 0.0 l/m2 in 1 Std. -
Do, 23.01. 23:00 0.0 l/m2 in 1 Std. -
Ortszeit Stärke Spitze Richtung
km/h Bft. km/h Grad Sektor
Fr, 24.01. 1:00 0 0 7 - -
Do, 23.01. 19:00 4 1 22 40° NO
Do, 23.01. 13:00 18 3 25 90° O
Do, 23.01. 7:00 11 2 22 110° O
Do, 23.01. 1:00 4 1 11 210° SW
Mi, 22.01. 19:00 2 1 20 190° S
Mi, 22.01. 13:00 7 2 18 320° NW
Mi, 22.01. 7:00 9 2 15 30° NO
Ortszeit Stärke Spitze Richtung
km/h Bft. km/h Grad Sektor
Fr, 24.01. 2:30 2 1 6 250° W
Fr, 24.01. 2:20 2 1 - 250° W
Fr, 24.01. 2:10 4 1 - 250° W
Fr, 24.01. 2:00 4 1 7 240° SW
Fr, 24.01. 1:50 4 1 - 240° SW
Fr, 24.01. 1:40 6 1 - 230° SW
Fr, 24.01. 1:30 2 1 6 200° S
Fr, 24.01. 1:00 0 0 4 - -
Fr, 24.01. 0:30 4 1 4 10° N
Fr, 24.01. 0:00 4 1 4 100° O
Do, 23.01. 23:30 0 0 4 - -
Do, 23.01. 23:00 4 1 7 40° NO
Ortszeit Untergrenze Bedeckung Gattung
total tief tief mittel hoch
Fr, 24.01. 1:00 - 0/8 0/8 - - -
Do, 23.01. 19:00 - 0/8 0/8 - - -
Do, 23.01. 13:00 60 m 8/8 8/8 - - -
Do, 23.01. 7:00 <30 m 8/8 0/8 - - -
Do, 23.01. 1:00 <30 m 8/8 0/8 - - -
Mi, 22.01. 19:00 210 m 1/8 1/8 - - -
Mi, 22.01. 13:00 90 m 8/8 8/8 - - -
Mi, 22.01. 7:00 <30 m 8/8 0/8 - - -
Ortszeit Bedeckungsgrad in Achtel und Wolkenuntergrenze
Fr, 24.01. 2:30 8(270m)
Fr, 24.01. 2:20 8(270m)
Fr, 24.01. 2:10 8(270m)
Fr, 24.01. 2:00 8(330m)
Fr, 24.01. 1:50 8(330m)
Fr, 24.01. 1:40 8(360m)
Fr, 24.01. 1:30 4(390m)
Fr, 24.01. 1:00 keine Wolken
Fr, 24.01. 0:30 keine Wolken
Fr, 24.01. 0:00 keine Wolken
Do, 23.01. 23:30 keine Wolken
Do, 23.01. 23:00 keine Wolken
Ortszeit Luftdruck NN (hPa) Tendenz (hPa in 3 Std.)
Fr, 24.01. 1:00 1029 - 0,5
Do, 23.01. 19:00 1030 - 0,9
Do, 23.01. 13:00 1034 - 1,8
Do, 23.01. 7:00 1036 - 0,7
Do, 23.01. 1:00 1038 - 0,1
Mi, 22.01. 19:00 1037 + 0,7
Mi, 22.01. 13:00 1037 - 0,6
Mi, 22.01. 7:00 1038 - 0,3
Ortszeit Luftdruck NN (hPa) Tendenz (hPa in 3 Std.)
Fr, 24.01. 2:30 1028 - 0,8
Fr, 24.01. 2:20 1028 keine Meldung
Fr, 24.01. 2:10 1028 keine Meldung
Fr, 24.01. 2:00 1029 - 0,7
Fr, 24.01. 1:50 1029 keine Meldung
Fr, 24.01. 1:40 1029 keine Meldung
Fr, 24.01. 1:30 1029 - 0,6
Fr, 24.01. 1:00 1029 - 0,5
Fr, 24.01. 0:30 1029 - 0,4
Fr, 24.01. 0:00 1029 - 0,5
Do, 23.01. 23:30 1029 - 0,5
Do, 23.01. 23:00 1029 - 0,7
Ortszeit Schneehöhe (cm)
Fr, 24.01. 1:00 0
Do, 23.01. 19:00 0
Do, 23.01. 13:00 0
Do, 23.01. 7:00 0
Do, 23.01. 1:00 0
Mi, 22.01. 19:00 0
Mi, 22.01. 13:00 0
Mi, 22.01. 7:00 0
Ortszeit Schneehöhe (cm)
Fr, 24.01. 2:30 0
Fr, 24.01. 2:20 0
Fr, 24.01. 2:10 0
Fr, 24.01. 2:00 0
Fr, 24.01. 1:50 0
Fr, 24.01. 1:40 0
Fr, 24.01. 1:30 0
Fr, 24.01. 1:00 0
Fr, 24.01. 0:30 0
Fr, 24.01. 0:00 0
Do, 23.01. 23:30 0
Do, 23.01. 23:00 0
Link zu dieser Seite / Seite empfehlen

Das Wetter in ...